Location: Brantley
(31.5822°N, 86.2569°W)
Time: 22:11:49
(UTC+00:00)

Transit 2A - All Passes

Search period start: 17 February 2026 00:00
Search period end: 27 February 2026 00:00
Orbit: 589 x 955 km, 66.7° (Epoch: 17 February)

Date Brightness Start Highest point End Pass type
(mag) Time Alt. Az. Time Alt. Az. Time Alt. Az.
17 Feb - 02:31:45 10° NNE 02:35:10 16° NE 02:38:25 10° E visible
17 Feb - 04:13:09 10° NNW 04:18:53 69° WSW 04:24:02 10° SSE night (unlit)
17 Feb - 17:02:40 10° SSE 17:07:49 32° ESE 17:13:16 10° NE daylight
17 Feb - 18:45:19 10° WSW 18:50:47 35° WNW 18:56:31 10° N daylight
18 Feb - 01:57:50 10° NE 01:58:23 10° NE 01:58:56 10° NE visible
18 Feb - 03:36:46 10° NNW 03:42:34 75° ENE 03:47:46 10° SSE visible
18 Feb - 05:24:06 10° W 05:24:39 10° W 05:25:12 10° WSW night (unlit)
18 Feb - 16:27:29 10° SSE 16:31:43 20° ESE 16:36:06 10° ENE daylight
18 Feb - 18:08:27 10° SW 18:14:17 52° WNW 18:20:27 10° NNE daylight
19 Feb - 03:00:33 10° NNW 03:06:09 47° ENE 03:11:11 10° SE visible
19 Feb - 04:44:58 10° WNW 04:48:38 18° WSW 04:52:04 10° SW night (unlit)
19 Feb - 15:53:23 10° ESE 15:55:40 12° E 15:57:59 10° ENE daylight
19 Feb - 17:31:54 10° SSW 17:37:53 80° WNW 17:44:14 10° NNE daylight
19 Feb - 19:19:25 10° WNW 19:21:58 13° NW 19:24:32 10° NNW daylight
20 Feb - 02:24:32 10° N 02:29:38 30° NE 02:34:17 10° ESE visible
20 Feb - 04:07:44 10° NW 04:12:33 29° WSW 04:16:58 10° SSW night (unlit)
20 Feb - 16:55:39 10° SSW 17:01:33 68° ESE 17:07:49 10° NNE daylight
20 Feb - 18:41:03 10° W 18:45:13 19° NW 18:49:29 10° N daylight
21 Feb - 01:48:47 10° N 01:53:00 20° NE 01:56:57 10° E visible
21 Feb - 03:30:56 10° NW 03:36:24 48° WSW 03:41:18 10° S visible
21 Feb - 16:19:43 10° S 16:25:19 44° ESE 16:31:13 10° NE daylight
21 Feb - 18:03:28 10° WSW 18:08:34 27° NW 18:13:50 10° N daylight
22 Feb - 01:13:31 10° NNE 01:16:17 13° NE 01:18:57 10° ENE visible
22 Feb - 02:54:24 10° NNW 03:00:09 80° WSW 03:05:16 10° SSE visible
22 Feb - 15:44:10 10° SSE 15:49:09 28° ESE 15:54:21 10° NE daylight
22 Feb - 17:26:21 10° SW 17:32:00 40° WNW 17:37:54 10° N daylight
23 Feb - 02:18:05 10° NNW 02:23:48 65° ENE 02:28:54 10° SE visible
23 Feb - 04:03:56 10° WNW 04:05:58 12° W 04:07:57 10° WSW visible
23 Feb - 15:09:13 10° SE 15:13:03 18° ESE 15:17:01 10° ENE daylight
23 Feb - 16:49:35 10° SW 16:55:31 60° WNW 17:01:47 10° NNE daylight
24 Feb - 01:41:56 10° N 01:47:20 40° ENE 01:52:13 10° SE visible
24 Feb - 03:25:55 10° WNW 03:29:56 21° WSW 03:33:42 10° SSW visible
24 Feb - 14:36:12 10° ESE 14:37:01 10° E 14:37:50 10° E daylight
24 Feb - 16:13:07 10° SSW 16:19:08 90° WSW 16:25:30 10° NNE daylight
24 Feb - 17:59:52 10° W 18:03:05 14° NW 18:06:21 10° NNW daylight
25 Feb - 01:05:59 10° N 01:10:47 26° NE 01:15:11 10° ESE visible
25 Feb - 02:48:51 10° NW 02:53:51 34° WSW 02:58:23 10° S visible
25 Feb - 15:36:58 10° S 15:42:50 59° ESE 15:49:02 10° NNE daylight
25 Feb - 17:21:49 10° W 17:26:22 21° NW 17:31:01 10° N daylight
26 Feb - 00:30:21 10° N 00:34:07 18° NE 00:37:41 10° E visible
26 Feb - 02:12:08 10° NW 02:17:39 56° WSW 02:22:36 10° S visible
26 Feb - 15:01:08 10° S 15:06:37 38° ESE 15:12:22 10° NE daylight
26 Feb - 16:44:24 10° WSW 16:49:44 31° NW 16:55:15 10° N daylight
26 Feb - 23:55:28 10° NNE 23:57:22 12° NE 23:59:13 10° ENE daylight
